Location: Middelsbur
(53.6609°N, 7.5020°E)
Time: 23:07:50
(UTC+00:00)

Lacrosse 5 rocket - Pass Details

Date: 06 July 2020
Orbit: 465 x 631 km, 57.0° (Epoch: 14 August)

Event Time Altitude Azimuth Distance (km) Brightness Sun altitude
Rises 22:47:46 0° 292° (WNW) 2,748 5.4 -13.1°
Reaches altitude 10° 22:50:04 10° 294° (WNW) 1,822 4.4 -13.2°
Maximum altitude 22:54:11 80° 21° (NNE) 538 1.3 -13.3°
Drops below altitude 10° 22:58:03 10° 110° (ESE) 1,716 3.6 -13.4°
Enters shadow 22:59:13 - 111° (ESE) 2,183 4.1 -13.4°
